When you browse on this site, cookies collect data to enhance your experience and personalize the content and advertising you see.
Visit our Privacy Policy to learn more. By continuing to use the site, you agree to this use of cookies and data.
  • Em Portugal
  • Lista de países
  • Para 7 dias
  • Temperatura da água
  • Mapas de satélite
  • Mapa do tempo
  • Widgets de tempo
  • user-avatar
    Iniciar Sessão

    Previsão horária em Sherpur

    Hoje, 23 Maio, Quinta-feira

    Tempo Temperatura Precipitação Vento Pressão Humidade
    00:00 +16°C° 0.4 mm 2 m/s 609 mmHg 48%
    01:00 +16°C° 0.4 mm 2 m/s 609 mmHg 49%
    02:00 +15°C° 0.4 mm 1 m/s 608 mmHg 50%
    03:00 +15°C° 0.5 mm 1 m/s 608 mmHg 52%
    04:00 +14°C° 0.5 mm 1 m/s 608 mmHg 54%
    05:00 +14°C° 0.5 mm 1 m/s 608 mmHg 56%
    06:00 +14°C° 0.7 mm 1 m/s 608 mmHg 57%
    07:00 +14°C° 0.7 mm 1 m/s 608 mmHg 59%
    08:00 +14°C° 0.7 mm 1 m/s 608 mmHg 60%
    09:00 +15°C° 0.1 mm 1 m/s 608 mmHg 57%
    10:00 +16°C° 0.1 mm 2 m/s 609 mmHg 55%
    11:00 +17°C° 0.1 mm 2 m/s 609 mmHg 52%
    12:00 +18°C° 0 mm 2 m/s 609 mmHg 50%
    13:00 +19°C° 0 mm 3 m/s 609 mmHg 48%
    14:00 +20°C° 0 mm 3 m/s 609 mmHg 45%
    15:00 +20°C° 0.4 mm 3 m/s 609 mmHg 47%
    16:00 +20°C° 0.4 mm 4 m/s 608 mmHg 49%
    17:00 +19°C° 0.4 mm 4 m/s 608 mmHg 51%
    18:00 +18°C° 3 mm 4 m/s 608 mmHg 59%
    19:00 +16°C° 3 mm 3 m/s 607 mmHg 67%
    20:00 +13°C° 3 mm 3 m/s 607 mmHg 75%
    21:00 +13°C° 1.4 mm 3 m/s 607 mmHg 76%
    22:00 +13°C° 1.4 mm 3 m/s 607 mmHg 76%
    23:00 +13°C° 1.4 mm 2 m/s 608 mmHg 76%

    Amanhã, 24 Maio, Sexta-feira

    Tempo Temperatura Precipitação Vento Pressão Humidade
    00:00 +13°C° 0.2 mm 2 m/s 607 mmHg 76%
    01:00 +13°C° 0.2 mm 2 m/s 607 mmHg 75%
    02:00 +13°C° 0.2 mm 2 m/s 607 mmHg 75%
    03:00 +13°C° 0.2 mm 1 m/s 607 mmHg 74%
    04:00 +13°C° 0.2 mm 1 m/s 607 mmHg 73%
    05:00 +12°C° 0.2 mm 1 m/s 607 mmHg 73%
    06:00 +13°C° 0.1 mm 1 m/s 607 mmHg 67%
    07:00 +14°C° 0.1 mm 1 m/s 608 mmHg 61%
    08:00 +15°C° 0.1 mm 1 m/s 609 mmHg 55%
    09:00 +16°C° 0.1 mm 1 m/s 609 mmHg 51%
    10:00 +18°C° 0.1 mm 1 m/s 609 mmHg 47%
    11:00 +19°C° 0.1 mm 2 m/s 610 mmHg 43%
    12:00 +20°C° 0.2 mm 1 m/s 610 mmHg 40%
    13:00 +21°C° 0.2 mm 1 m/s 610 mmHg 37%
    14:00 +22°C° 0.2 mm 1 m/s 610 mmHg 35%
    15:00 +22°C° 0.2 mm 1 m/s 610 mmHg 34%
    16:00 +21°C° 0.2 mm 2 m/s 610 mmHg 32%
    17:00 +23°C° 0.2 mm 2 m/s 610 mmHg 31%
    18:00 +21°C° 0.1 mm 2 m/s 610 mmHg 33%
    19:00 +20°C° 0.1 mm 2 m/s 610 mmHg 35%
    20:00 +19°C° 0.1 mm 2 m/s 611 mmHg 37%
    21:00 +20°C° 0 mm 1 m/s 611 mmHg 40%
    22:00 +19°C° 0 mm 1 m/s 611 mmHg 44%
    23:00 +18°C° 0 mm 1 m/s 611 mmHg 47%

    Depois de amanhã, 25 Maio, Sábado

    Tempo Temperatura Precipitação Vento Pressão Humidade
    00:00 +18°C° 0 mm 1 m/s 611 mmHg 48%
    01:00 +16°C° 0 mm 1 m/s 610 mmHg 48%
    02:00 +16°C° 0 mm 1 m/s 610 mmHg 49%
    03:00 +15°C° 0 mm 1 m/s 610 mmHg 48%
    04:00 +15°C° 0 mm 2 m/s 610 mmHg 48%
    05:00 +15°C° 0 mm 2 m/s 609 mmHg 47%
    06:00 +16°C° 0 mm 2 m/s 610 mmHg 42%
    07:00 +17°C° 0 mm 2 m/s 611 mmHg 37%
    08:00 +19°C° 0 mm 2 m/s 611 mmHg 32%
    09:00 +20°C° 0 mm 2 m/s 612 mmHg 28%
    10:00 +21°C° 0 mm 2 m/s 612 mmHg 25%
    11:00 +24°C° 0 mm 2 m/s 612 mmHg 21%
    12:00 +25°C° 0 mm 2 m/s 612 mmHg 20%
    13:00 +25°C° 0 mm 3 m/s 612 mmHg 20%
    14:00 +26°C° 0 mm 3 m/s 612 mmHg 19%
    15:00 +26°C° 0 mm 4 m/s 612 mmHg 20%
    16:00 +26°C° 0 mm 5 m/s 611 mmHg 21%
    17:00 +26°C° 0 mm 5 m/s 611 mmHg 21%
    18:00 +23°C° 0 mm 5 m/s 611 mmHg 24%
    19:00 +22°C° 0 mm 4 m/s 611 mmHg 27%
    20:00 +20°C° 0 mm 3 m/s 611 mmHg 30%
    21:00 +19°C° 0 mm 3 m/s 611 mmHg 32%
    22:00 +19°C° 0 mm 3 m/s 610 mmHg 34%
    23:00 +18°C° 0 mm 3 m/s 610 mmHg 36%

    26 Maio, Domingo

    Tempo Temperatura Precipitação Vento Pressão Humidade
    00:00 +17°C° 0 mm 2 m/s 610 mmHg 37%
    01:00 +17°C° 0 mm 2 m/s 610 mmHg 39%
    02:00 +16°C° 0 mm 2 m/s 609 mmHg 40%
    03:00 +16°C° 0 mm 2 m/s 609 mmHg 42%
    04:00 +15°C° 0 mm 2 m/s 609 mmHg 44%
    05:00 +14°C° 0 mm 2 m/s 609 mmHg 45%
    06:00 +16°C° 0 mm 3 m/s 610 mmHg 41%
    07:00 +17°C° 0 mm 3 m/s 610 mmHg 36%
    08:00 +18°C° 0 mm 3 m/s 611 mmHg 31%
    09:00 +19°C° 0 mm 4 m/s 611 mmHg 28%
    10:00 +20°C° 0 mm 4 m/s 612 mmHg 24%
    11:00 +21°C° 0 mm 4 m/s 612 mmHg 20%
    12:00 +22°C° 0 mm 4 m/s 612 mmHg 19%
    13:00 +23°C° 0 mm 4 m/s 612 mmHg 17%
    14:00 +25°C° 0 mm 4 m/s 612 mmHg 15%
    15:00 +25°C° 0 mm 5 m/s 612 mmHg 15%
    16:00 +25°C° 0 mm 5 m/s 612 mmHg 14%
    17:00 +25°C° 0 mm 5 m/s 612 mmHg 14%
    18:00 +22°C° 0 mm 4 m/s 612 mmHg 17%
    19:00 +21°C° 0 mm 4 m/s 612 mmHg 20%
    20:00 +19°C° 0 mm 3 m/s 611 mmHg 23%
    21:00 +18°C° 0 mm 2 m/s 611 mmHg 25%
    22:00 +18°C° 0 mm 2 m/s 611 mmHg 27%
    23:00 +17°C° 0 mm 2 m/s 611 mmHg 30%

    27 Maio, Segunda-feira

    Tempo Temperatura Precipitação Vento Pressão Humidade
    00:00 +16°C° 0 mm 2 m/s 611 mmHg 31%
    01:00 +16°C° 0 mm 2 m/s 610 mmHg 32%
    02:00 +15°C° 0 mm 2 m/s 610 mmHg 32%
    03:00 +14°C° 0 mm 2 m/s 610 mmHg 33%
    04:00 +14°C° 0 mm 2 m/s 609 mmHg 34%
    05:00 +14°C° 0 mm 2 m/s 609 mmHg 34%
    06:00 +15°C° 0 mm 2 m/s 610 mmHg 31%
    07:00 +17°C° 0 mm 2 m/s 611 mmHg 27%
    08:00 +19°C° 0 mm 1 m/s 611 mmHg 24%
    09:00 +21°C° 0 mm 1 m/s 612 mmHg 21%
    10:00 +22°C° 0 mm 1 m/s 612 mmHg 18%
    11:00 +24°C° 0 mm 1 m/s 612 mmHg 15%
    12:00 +25°C° 0 mm 1 m/s 612 mmHg 14%
    13:00 +26°C° 0 mm 2 m/s 612 mmHg 13%
    14:00 +27°C° 0 mm 2 m/s 612 mmHg 12%
    15:00 +27°C° 0 mm 2 m/s 612 mmHg 12%
    16:00 +27°C° 0 mm 3 m/s 612 mmHg 11%
    17:00 +27°C° 0 mm 4 m/s 612 mmHg 11%
    18:00 +25°C° 0 mm 3 m/s 612 mmHg 13%
    19:00 +24°C° 0 mm 3 m/s 612 mmHg 15%
    20:00 +21°C° 0 mm 2 m/s 612 mmHg 16%
    21:00 +20°C° 0 mm 2 m/s 611 mmHg 18%
    22:00 +19°C° 0 mm 2 m/s 611 mmHg 20%
    23:00 +19°C° 0 mm 1 m/s 611 mmHg 22%

    28 Maio, Terça-feira

    Tempo Temperatura Precipitação Vento Pressão Humidade
    00:00 +19°C° 0 mm 1 m/s 611 mmHg 23%
    01:00 +17°C° 0 mm 2 m/s 610 mmHg 23%
    02:00 +16°C° 0 mm 2 m/s 610 mmHg 24%
    03:00 +16°C° 0 mm 2 m/s 610 mmHg 25%
    04:00 +15°C° 0 mm 2 m/s 609 mmHg 25%
    05:00 +15°C° 0 mm 2 m/s 609 mmHg 26%
    06:00 +17°C° 0 mm 2 m/s 610 mmHg 23%
    07:00 +18°C° 0 mm 2 m/s 611 mmHg 21%
    08:00 +20°C° 0 mm 2 m/s 612 mmHg 19%
    09:00 +23°C° 0 mm 1 m/s 612 mmHg 17%
    10:00 +24°C° 0 mm 1 m/s 612 mmHg 15%
    11:00 +26°C° 0 mm 1 m/s 613 mmHg 12%
    12:00 +27°C° 0 mm 2 m/s 613 mmHg 12%
    13:00 +27°C° 0 mm 2 m/s 613 mmHg 11%
    14:00 +28°C° 0 mm 2 m/s 613 mmHg 10%
    15:00 +28°C° 0 mm 3 m/s 613 mmHg 10%
    16:00 +28°C° 0 mm 4 m/s 612 mmHg 10%
    17:00 +28°C° 0 mm 4 m/s 612 mmHg 9%
    18:00 +27°C° 0 mm 4 m/s 612 mmHg 12%
    19:00 +25°C° 0 mm 3 m/s 612 mmHg 14%
    20:00 +22°C° 0 mm 3 m/s 612 mmHg 16%
    21:00 +21°C° 0 mm 2 m/s 612 mmHg 18%
    22:00 +20°C° 0 mm 2 m/s 611 mmHg 19%
    23:00 +19°C° 0 mm 2 m/s 611 mmHg 21%
    Mostrar mais